BREEZE-M DEB, 43407

Orbit data source: Space-Track

BREEZE-M DEB, 43407 is space debris in HEO originally from a launch on Mon, 15 Apr 2013 UTC launched from the Tyuratam Missile And Space Complex (TTMTR). Debris objects in space refer to the collection of defunct objects orbiting the Earth. Examples of debris include non-operational satellites, rocket bodies, and fragments generated from explosions, collisions, or faulty payload assembly.

Loading next visibility...
Identifier
43407, 2013-014D
Orbit
HEO
Last TLE update
1 day ago
Origin
Manufacturer
Khrunichev
Mission
Spacecraft
Bus & Motor
Unknown
Mass
Unknown
Launch date (UTC)
2013-04-15 (12 years ago)
Launch vehicle
Unknown
Launch site
Tyuratam Missile And Space Complex (TTMTR)
Object type
Payload
Rocket body
Debris
Shape & HBR
Unknown
Radar Cross Section
Small (<0.1 m²)

Expand to show TLE details & history

TLE from 1 day ago
0 BREEZE-M DEB
1 43407U 13014D   25198.22255440 -.00000063  00000-0  00000-0 0  9996
2 43407  15.3159  26.5790 4829103 166.9693 212.2531  1.91514395 68941
Epoch: 2025-07-17T05:20Z
TLE epoch observation values (Epoch: 2025-07-17T05:20:28.7Z)
Latitude
-0.00005°
Longitude
11.18103°
Altitude
33,255.292 km
Speed
2.359 km/s
True Right ascension
01h 46m 22s
True Declination
0° 00' 00"
Sunlit
Object was in daylight at epoch
Visualization orbit readout
Latitude
13.24149°
Longitude
132.1208°
Altitude
9,445.167 km
Speed
5.986 km/s
Apparent Right ascension
10h 17m 35s
Apparent Declination
-1° 19' 01"
Sunlit
Object is in daylight
Visualization observer readout
Local Sidereal Time
23:45:56
Azimuth
33.092° NE
Elevation
-46.491°
Doppler factor
1
Orbital elements
Apogee altitude
34,242.809 km
Perigee altitude
7,786.356 km
Semi-major axis
27,392.72 km
Eccentricity
0.48291
Inclination
15.3159°
RAAN
26.579°
Arg. of periapsis
166.9693°
True anomaly
193.04916°
Mean anomaly
212.2531°
Eccentric anomaly
201.92279°
Mean motion
0.47873 °/min
Orbital period
751.99 mins
BSTAR
0
Loading maneuver chart data...
Loading SW <> Apogee altitude chart data...
Loading historical data...
Loading historical data...
Loading historical data...
Loading historical data...
Loading historical data...
Loading historical data...
Loading historical data...
Other satellites on launch #14 in the year 2013 (2013-04-15 UTC)
|